Weather in Pesochenskiy

Russia / Tula Oblast     54°10′30″N   36°06′18″E
temp.,
°C
wind,
m/s
gust,
m/s
humid.,
%
clouds,
%
prec.,
mm/h
press.,
hPa
HPBL,
m
10 may, mon
mon1000:00+3nw411785 0.0 1022174
03:00+2nnw39805 0.0 1024157
06:00+2nnw37780 0.0 1026160
09:00+8n47600 0.0 1027545
12:00+12n68470 0.0 10271529
15:00+13nne68450 0.0 10261694
18:00+12nne58550 0.0 1026629
21:00+6nne36722 0.0 102775
11 may, tue
tue1100:00+5nne412782 0.0 1027209
03:00+4nne39815 0.0 1027178
06:00+5nne412825 0.0 1027320
09:00+11ne69705 0.0 1026521
12:00+16ne69645 0.0 1024843
15:00+19ene796429 0.0 10231219
18:00+18ene610754 0.5 1024886
21:00+12se4993100 2.5 1025433
12 may, wed
wed1200:00+8se23950 0.0 102749
03:00+6e229261 0.0 102611
06:00+7ene2291100 0.0 102770
09:00+9e1389100 0.2 1025181
12:00+9nnw2493100 0.3 1023218
15:00+8wsw4596100 5.0 1020264
18:00+8se369365 3.6 1020380
21:00+6ese35950 3.7 102095
13 may, thu
thu1300:00+7ene4119552 0.0 1019265
03:00+8ese5139366 0.0 1019410
06:00+8ese4129698 0.0 1019363
09:00+11ese4890100 0.6 1019417
12:00+15sse4773100 0.1 10181105
15:00+17sse566398 0.3 10171619
18:00+17sse477229 0.1 1017620
21:00+12ese338796 0.1 101827
14 may, fri
fri1400:00+13ese2483100 0.0 101893
03:00+11ese3787100 0.0 1017135
06:00+13ese4129449 0.0 1017302
09:00+17ese7127994 0.0 1015683
12:00+21se71067100 0.0 10141339
15:00+22se81371100 1.1 10121544
18:00+19sse614788 2.1 1012687
21:00+16se41187100 2.2 1011283